Weather History for Roseau, MN

Change the Weather History Date:

Monday, September 2, 2013

  Actual Average Record
Temperature  
Mean Temperature 56 °F -  
Max Temperature 71 °F 72 °F 94 °F (1983)
Min Temperature 41 °F 46 °F 30 °F (1972)
Degree Days  
Heating Degree Days 9    
Growing Degree Days 6 (Base 50)    
Moisture  
Dew Point 47 °F    
Average Humidity 73    
Maximum Humidity 87    
Minimum Humidity 50    
Precipitation  
Precipitation 0.00 in - - ()
Sea Level Pressure  
Sea Level Pressure 30.08 in    
Wind  
Wind Speed 2 mph (SSW)    
Max Wind Speed 9 mph    
Max Gust Speed -    
Visibility 9 miles    
Events      
Averages and records for this station are not official NWS values.
T = Trace of Precipitation, MM = Missing Value Source: NWS Daily Summary

Daily Weather History Graph

Daily Weather History Graph

Search for Another Location

Airport:

Trip Planner

Search our weather history database for the weather conditions in past years. The results will help you decide how hot, cold, wet, or windy it might be!

Date:

Astronomy

Sep. 02, 2013 Rise Set
Actual Time 6:41 AM CDT 8:02 PM CDT
Civil Twilight 6:08 AM CDT 8:34 PM CDT
Nautical Twilight 5:28 AM CDT 9:14 PM CDT
Astronomical Twilight 4:46 AM CDT 9:56 PM CDT
Moon 3:50 AM CDT (9/2) 6:22 PM CDT (9/2)
Length of Visible Light 14h 26m
Length of Day
13h 20m
Waning Crescent, 8% of the Moon is Illuminated
Sep 2
Waning Crescent
Sep 5
New
Sep 12
First Quarter
Sep 19
Full
Sep 26
Last Quarter

Hourly Weather History & Observations

Time (CDT) Temp. Windchill Dew Point Humidity Pressure Visibility Wind Dir Wind Speed Gust Speed Precip Events Conditions
12:14 AM 48.2 °F - 44.6 °F 87% 30.07 in 10.0 mi WNW 3.5 mph - N/A   Clear
12:34 AM 48.2 °F - 44.6 °F 87% 30.07 in 10.0 mi NW 4.6 mph - N/A   Clear
12:54 AM 48.2 °F - 44.6 °F 87% 30.07 in 10.0 mi Calm Calm - N/A   Clear
1:15 AM 48.2 °F - 44.6 °F 87% 30.08 in 10.0 mi Calm Calm - N/A   Clear
1:34 AM 48.2 °F - 42.8 °F 82% 30.08 in 10.0 mi NW 3.5 mph - N/A   Clear
1:54 AM 48.2 °F - 42.8 °F 82% 30.09 in 10.0 mi WNW 3.5 mph - N/A   Clear
2:14 AM 48.2 °F - 42.8 °F 82% 30.08 in 10.0 mi NW 3.5 mph - N/A   Clear
2:34 AM 46.4 °F 44.3 °F 42.8 °F 87% 30.08 in 10.0 mi WNW 4.6 mph - N/A   Clear
2:54 AM 44.6 °F - 41.0 °F 87% 30.09 in 10.0 mi Calm Calm - N/A   Clear
3:14 AM 44.6 °F - 39.2 °F 81% 30.09 in 10.0 mi Calm Calm - N/A   Clear
3:34 AM 44.6 °F - 39.2 °F 81% 30.09 in 10.0 mi Calm Calm - N/A   Clear
3:54 AM 44.6 °F - 39.2 °F 81% 30.09 in 7.0 mi Calm Calm - N/A   Clear
4:14 AM 44.6 °F - 39.2 °F 81% 30.10 in 1.8 mi Calm Calm - N/A   Haze
4:34 AM 44.6 °F - 39.2 °F 81% 30.10 in 10.0 mi Calm Calm - N/A   Clear
4:40 AM 44.6 °F - 39.2 °F 81% 30.10 in 10.0 mi Calm Calm - N/A   Clear
5:01 AM 44.6 °F - 39.2 °F 81% 30.11 in 10.0 mi Calm Calm - N/A   Clear
5:21 AM 44.6 °F - 39.2 °F 81% 30.11 in 10.0 mi WNW 1.2 mph - N/A   Clear
5:41 AM 44.6 °F - 39.2 °F 81% 30.11 in 10.0 mi NNW 1.2 mph - N/A   Clear
6:01 AM 44.6 °F - 39.2 °F 81% 30.11 in 5.0 mi NNW 1.2 mph - N/A   Clear
6:21 AM 42.8 °F - 37.4 °F 81% 30.11 in 2.0 mi NW 2.3 mph - N/A   Clear
6:41 AM 41.0 °F - 37.4 °F 87% 30.12 in 4.0 mi NW 1.2 mph - N/A   Clear
7:01 AM 42.8 °F - 37.4 °F 81% 30.12 in 0.5 mi Calm Calm - N/A   Unknown
7:21 AM 42.8 °F - 37.4 °F 81% 30.12 in 0.5 mi West 1.2 mph - N/A   Unknown
7:41 AM 44.6 °F - 39.2 °F 81% 30.12 in 10.0 mi Calm Calm - N/A   Clear
8:01 AM 46.4 °F - 42.8 °F 87% 30.13 in 10.0 mi NW 1.2 mph - N/A   Clear
8:21 AM 48.2 °F - 44.6 °F 87% 30.13 in 10.0 mi Calm Calm - N/A   Clear
8:41 AM 51.8 °F - 46.4 °F 82% 30.13 in 10.0 mi Calm Calm - N/A   Clear
9:01 AM 51.8 °F - 46.4 °F 82% 30.14 in 10.0 mi SSW 1.2 mph - N/A   Clear
9:21 AM 53.6 °F - 48.2 °F 82% 30.14 in 10.0 mi Calm Calm - N/A   Clear
10:01 AM 57.2 °F - 51.8 °F 82% 30.14 in 10.0 mi West 1.2 mph - N/A   Clear
10:21 AM 59.0 °F - 51.8 °F 77% 30.14 in 10.0 mi Calm Calm - N/A   Clear
10:41 AM 60.8 °F - 50.0 °F 68% 30.14 in 10.0 mi WSW 1.2 mph - N/A   Clear
11:18 AM 62.6 °F - 51.8 °F 68% 30.14 in 10.0 mi Calm Calm - N/A   Clear
11:34 AM 62.6 °F - 50.0 °F 63% 30.13 in 10.0 mi Calm Calm - N/A   Clear
11:54 AM 62.6 °F - 51.8 °F 68% 30.13 in 10.0 mi SSE 3.5 mph - N/A   Clear
12:14 PM 64.4 °F - 51.8 °F 64% 30.12 in 10.0 mi SSE 3.5 mph - N/A   Scattered Clouds
12:34 PM 66.2 °F - 51.8 °F 60% 30.12 in 10.0 mi South 5.8 mph - N/A   Clear
12:54 PM 66.2 °F - 51.8 °F 60% 30.11 in 10.0 mi ESE 8.1 mph - N/A   Clear
1:14 PM 66.2 °F - 51.8 °F 60% 30.10 in 10.0 mi SE 5.8 mph - N/A   Clear
1:34 PM 68.0 °F - 51.8 °F 56% 30.10 in 10.0 mi ESE 3.5 mph - N/A   Clear
1:54 PM 68.0 °F - 51.8 °F 56% 30.09 in 10.0 mi ESE 9.2 mph - N/A   Clear
2:14 PM 69.8 °F - 51.8 °F 53% 30.09 in 10.0 mi Calm Calm - N/A   Clear
2:34 PM 68.0 °F - 51.8 °F 56% 30.08 in 10.0 mi ESE 5.8 mph - N/A   Clear
2:54 PM 69.8 °F - 51.8 °F 53% 30.08 in 10.0 mi SE 5.8 mph - N/A   Clear
3:14 PM 69.8 °F - 51.8 °F 53% 30.08 in 10.0 mi Calm Calm - N/A   Scattered Clouds
3:34 PM 71.6 °F - 51.8 °F 50% 30.07 in 10.0 mi Calm Calm - N/A   Clear
3:54 PM 69.8 °F - 51.8 °F 53% - 10.0 mi Calm Calm - N/A   Clear
4:14 PM 69.8 °F - 51.8 °F 53% 30.05 in 10.0 mi Calm Calm - N/A   Clear
4:34 PM 71.6 °F - 51.8 °F 50% 30.05 in 10.0 mi North - - N/A   Clear
4:54 PM 69.8 °F - 51.8 °F 53% 30.04 in 10.0 mi South 3.5 mph - N/A   Clear
5:14 PM 71.6 °F - 51.8 °F 50% 30.04 in 10.0 mi South 4.6 mph - N/A   Clear
5:34 PM 69.8 °F - 51.8 °F 53% 30.04 in 10.0 mi SSE 4.6 mph - N/A   Clear
5:54 PM 69.8 °F - 51.8 °F 53% 30.03 in 10.0 mi SSW 4.6 mph - N/A   Clear
6:14 PM 69.8 °F - 51.8 °F 53% 30.03 in 10.0 mi Calm Calm - N/A   Clear
6:34 PM 69.8 °F - 51.8 °F 53% 30.03 in 10.0 mi South 3.5 mph - N/A   Clear
6:54 PM 69.8 °F - 53.6 °F 56% 30.03 in 10.0 mi SW 4.6 mph - N/A   Clear
7:14 PM 68.0 °F - 53.6 °F 60% 30.03 in 10.0 mi SW 4.6 mph - N/A   Clear
7:31 PM 66.2 °F - 55.4 °F 68% 30.02 in 10.0 mi SSW 3.5 mph - N/A   Clear
7:54 PM 62.6 °F - 53.6 °F 72% 30.02 in 10.0 mi Calm Calm - N/A   Clear
8:12 PM 60.8 °F - 53.6 °F 77% 30.02 in 10.0 mi Calm Calm - N/A   Clear
8:34 PM 60.8 °F - 53.6 °F 77% 30.02 in 10.0 mi Calm Calm - N/A   Clear
8:54 PM 57.2 °F - 51.8 °F 82% 30.01 in 10.0 mi South 3.5 mph - N/A   Clear
9:14 PM 53.6 °F - 48.2 °F 82% 30.01 in 10.0 mi SSE 3.5 mph - N/A   Clear
9:34 PM 55.4 °F - 50.0 °F 82% 30.01 in 10.0 mi SSE 3.5 mph - N/A   Clear
9:54 PM 53.6 °F - 48.2 °F 82% 30.01 in 10.0 mi SSE 3.5 mph - N/A   Clear
10:14 PM 53.6 °F - 48.2 °F 82% 30.01 in 10.0 mi SSE 4.6 mph - N/A   Clear
10:34 PM 53.6 °F - 48.2 °F 82% 30.01 in 10.0 mi South 3.5 mph - N/A   Clear
10:54 PM 51.8 °F - 46.4 °F 82% 30.01 in 10.0 mi South 4.6 mph - N/A   Clear
11:14 PM 51.8 °F - 46.4 °F 82% 30.01 in 10.0 mi SSW 5.8 mph - N/A   Clear
11:34 PM 51.8 °F - 46.4 °F 82% 30.01 in 10.0 mi SSW 4.6 mph - N/A   Clear
11:54 PM 51.8 °F - 46.4 °F 82% 30.00 in 10.0 mi SSW 5.8 mph - N/A   Clear